VE6CWS-7 Weather Reports


Display with metric or nautical units.
time (UTC)temp
F
wind
direction
speed
MPH
gust
MPH
rain 1hr
in
rain 24hr
in
rain mn
in
humidity
%
barometer
mb
20260504023046 57 5 10.0 17.0 0.00 0.00 0.00 37 1008.8
20260504021544 58 12 10.0 23.0 0.00 0.00 0.00 38 1008.7
20260504020145 58 71 10.0 19.0 0.00 0.00 0.00 38 1008.6
20260504014555 59 22 14.0 26.0 0.00 0.00 0.00 36 1008.2
20260504013050 60 41 18.0 30.0 0.00 0.00 0.00 36 1007.8
20260504011543 61 29 17.0 28.0 0.00 0.00 0.00 34 1007.5
20260504010139 62 15 15.0 30.0 0.00 0.00 0.00 33 1007.3
20260504004551 65 46 16.0 24.0 0.00 0.00 0.00 31 1007.1
20260504003038 67 360 13.0 21.0 0.00 0.00 0.00 30 1006.7
20260504001551 67 22 13.0 25.0 0.00 0.00 0.00 28 1006.5
20260504000135 68 333 9.0 22.0 0.00 0.00 0.00 29 1006.3
20260503234533 68 320 11.0 22.0 0.00 0.00 0.00 27 1006.2
20260503233038 68 309 12.0 21.0 0.00 0.00 0.00 26 1006.5
20260503231533 68 321 13.0 22.0 0.00 0.00 0.00 26 1006.5
20260503230131 69 294 15.0 26.0 0.00 0.00 0.00 25 1006.3
20260503224551 69 355 13.0 29.0 0.00 0.00 0.00 26 1006.5
20260503223050 69 319 17.0 29.0 0.00 0.00 0.00 26 1006.5
20260503221549 69 312 17.0 27.0 0.00 0.00 0.00 26 1006.6
20260503220146 70 338 15.0 26.0 0.00 0.00 0.00 26 1006.5
20260503214546 70 286 14.0 27.0 0.00 0.00 0.00 26 1006.5
20260503213045 70 302 17.0 31.0 0.00 0.00 0.00 27 1006.6
20260503211548 70 283 18.0 26.0 0.00 0.00 0.00 25 1006.7
20260503210142 71 304 22.0 32.0 0.00 0.00 0.00 25 1006.7
20260503204545 72 304 13.0 32.0 0.00 0.00 0.00 25 1006.4
20260503203102 72 321 15.0 29.0 0.00 0.00 0.00 26 1006.6
20260503201541 71 298 21.0 35.0 0.00 0.00 0.00 24 1006.9
20260503200139 70 265 18.0 32.0 0.00 0.00 0.00 26 1006.8
20260503194543 71 284 19.0 30.0 0.00 0.00 0.00 25 1007.0
20260503193040 70 288 19.0 28.0 0.00 0.00 0.00 26 1007.3
20260503191543 70 300 19.0 31.0 0.00 0.00 0.00 26 1007.6
20260503190133 70 311 20.0 33.0 0.00 0.00 0.00 26 1007.7
20260503184657 70 284 21.0 30.0 0.00 0.00 0.00 26 1007.8
20260503183055 69 267 20.0 34.0 0.00 0.00 0.00 27 1008.0
20260503181559 68 307 20.0 29.0 0.00 0.00 0.00 27 1008.0
20260503180150 68 259 17.0 27.0 0.00 0.00 0.00 29 1008.5
20260503174549 68 302 13.0 22.0 0.00 0.00 0.00 30 1008.9
20260503173047 66 284 15.0 27.0 0.00 0.00 0.00 30 1009.2
20260503171545 66 284 16.0 24.0 0.00 0.00 0.00 31 1009.3
20260503170144 66 284 11.0 17.0 0.00 0.00 0.00 32 1009.3
20260503160138 60 294 11.0 17.0 0.00 0.00 0.00 39 1009.9
20260503140150 49 275 9.0 13.0 0.00 0.00 0.00 52 1010.4
20260503130147 44 260 8.0 11.0 0.00 0.00 0.00 61 1010.3
20260503120140 41 255 4.0 9.0 0.00 0.00 0.00 69 1010.3
20260503110136 44 269 8.0 10.0 0.00 0.00 0.00 68 1010.3
20260503100131 43 244 5.0 9.0 0.00 0.00 0.00 79 1010.0
20260503090147 43 230 6.0 9.0 0.00 0.00 0.00 79 1009.9
20260503081555 44 220 6.0 10.0 0.00 0.00 0.00 77 1010.5
20260503080142 45 161 6.0 10.0 0.00 0.00 0.00 75 1010.7
20260503071541 45 211 3.0 8.0 0.00 0.00 0.00 74 1011.0
20260503070137 45 216 6.0 8.0 0.00 0.00 0.00 73 1011.0
20260503060131 48 213 3.0 7.0 0.00 0.00 0.00 70 1011.3
20260503054600 48 214 1.0 7.0 0.00 0.00 0.00 70 1011.3
20260503053045 49 234 0.0 3.0 0.00 0.00 0.00 67 1011.4
20260503051544 48 121 0.0 1.0 0.00 0.00 0.00 66 1011.4
20260503050143 49 121 0.0 0.0 0.00 0.00 0.00 63 1011.5
20260503044541 50 122 0.0 3.0 0.00 0.00 0.00 61 1011.5
20260503043042 51 122 0.0 2.0 0.00 0.00 0.00 58 1011.5
20260503041543 52 122 0.0 4.0 0.00 0.00 0.00 56 1011.4
20260503040139 54 122 0.0 0.0 0.00 0.00 0.00 54 1011.4
20260503034536 55 122 0.0 0.0 0.00 0.00 0.00 51 1011.5
20260503033037 57 122 0.0 4.0 0.00 0.00 0.00 48 1011.4
20260503031538 58 122 0.0 4.0 0.00 0.00 0.00 46 1011.3
20260503024547 61 122 0.0 2.0 0.00 0.00 0.00 44 1011.4